Temperature
22 22 22 23 20 19 22 23 23 24 24 23 23 23 22 21 22 21 20 20 19 20 20 19 19 19 19 18 18 18 18 18 18 18 18 18 18 18 18 18 18 18 18 18 18 18 18 18 18
22 22 22 22 19 20 22 23 23 24 24 24 23 22 21 21 21 21 20 19 19 19 20 19 19 19 19 18 18 18 18 18 18 18 18 18 18 18 18 18 18 18 18 18 18 18 18 18 18
22 22 22 19 20 21 23 24 24 24 24 24 23 22 21 21 21 21 20 19 19 19 19 19 19 19 19 18 18 18 18 18 18 18 18 18 18 18 18 18 18 18 18 18 18 18 18 18 18
22 22 22 19 23 22 23 23 23 23 24 24 22 21 21 21 21 20 20 19 19 19 19 19 19 19 19 18 18 18 18 18 18 18 18 18 18 18 18 18 18 18 18 18 18 17 17 17 17
22 22 20 21 23 23 23 24 24 23 23 23 22 20 21 21 20 20 20 19 19 19 19 19 19 19 19 18 18 18 18 18 18 18 18 18 18 18 17 18 18 18 18 18 17 17 17 17 17
22 20 20 21 23 22 23 24 25 24 23 22 22 20 20 21 21 20 20 19 19 19 19 19 19 19 19 19 18 18 18 18 18 18 18 18 18 17 17 17 17 18 18 18 17 17 17 17 17
21 19 21 22 22 23 25 25 25 23 22 23 23 20 20 21 21 20 20 19 19 19 19 19 19 19 19 19 18 18 18 18 18 18 18 18 18 17 17 17 17 18 18 17 17 16 16 16 16
22 19 21 21 22 24 25 25 25 25 24 23 23 21 21 22 21 20 19 19 19 19 19 19 19 19 19 19 18 18 18 18 18 18 18 17 17 17 17 17 17 17 17 17 16 16 16 16 16
22 19 21 22 22 24 25 25 26 25 24 23 23 24 24 22 21 20 19 19 19 19 20 19 19 19 19 19 18 18 18 18 18 18 17 17 17 17 17 17 17 17 16 16 16 16 16 16 16
22 20 22 23 22 24 25 26 26 25 23 23 23 24 24 22 21 21 20 20 20 20 20 20 19 19 19 19 18 18 18 18 18 17 17 17 17 17 17 17 17 16 16 16 16 16 16 16 16
21 21 23 24 25 25 25 26 26 24 23 24 24 25 24 23 22 22 21 21 21 20 20 19 19 19 19 19 18 18 18 18 17 17 17 17 17 17 17 17 17 16 16 16 16 16 16 16 16
21 22 23 24 25 25 26 26 25 25 26 26 26 26 25 24 23 23 23 22 21 20 20 20 19 19 19 19 18 18 18 18 18 17 17 17 17 17 17 17 17 16 16 16 16 16 16 16 16
21 22 24 24 25 25 26 26 25 26 27 26 26 25 25 24 24 24 23 22 21 21 20 20 19 19 19 19 18 18 18 18 18 18 18 17 17 17 17 17 17 16 16 16 16 16 16 16 16
21 22 23 24 25 25 25 25 25 26 27 26 26 25 25 25 24 24 23 22 22 21 21 20 20 20 19 19 19 18 18 18 18 18 18 17 17 17 17 17 17 16 16 16 16 16 16 16 15
21 22 23 24 24 25 25 24 24 27 26 26 26 25 25 25 24 24 24 23 22 22 21 21 20 20 19 19 19 18 18 18 18 18 18 17 17 17 17 17 17 17 16 16 16 16 16 15 15
21 21 22 23 23 24 24 23 23 26 25 25 25 25 24 24 24 24 23 22 22 21 21 21 21 20 20 19 19 19 18 18 18 18 17 17 17 17 17 17 17 17 16 16 16 16 16 16 15
20 20 21 22 23 24 23 23 23 25 25 24 24 24 24 24 24 23 23 22 22 21 21 21 21 21 20 20 19 19 18 18 17 17 17 17 17 17 17 17 17 16 16 16 16 16 16 16 15
19 20 20 21 22 23 22 22 22 24 23 24 24 24 23 23 23 23 23 23 22 22 21 21 21 21 20 20 19 19 18 18 17 17 17 17 17 17 17 17 17 17 17 16 16 16 16 16 15
19 19 20 21 22 22 21 21 21 22 22 22 22 23 22 22 22 22 23 23 22 22 21 21 20 20 20 20 19 19 18 18 18 17 17 17 17 17 17 17 17 17 17 17 17 16 16 15 15
19 19 19 20 22 22 21 21 21 20 21 22 22 22 21 22 22 22 22 22 22 21 21 21 20 20 20 19 19 19 18 18 18 17 17 17 17 17 17 17 17 17 17 17 17 16 16 15 15
19 19 19 20 21 21 21 20 20 21 21 21 21 21 21 22 23 22 22 21 21 21 20 20 20 19 19 19 18 18 18 17 17 17 17 17 17 17 17 17 16 17 17 17 17 17 16 16 16
19 20 20 20 20 19 20 18 19 19 19 19 19 19 20 22 22 22 21 21 21 20 20 19 19 19 18 18 18 17 17 17 17 17 17 17 17 17 16 16 16 16 17 17 17 17 17 16 16
20 21 20 20 19 18 18 18 17 18 19 19 18 19 21 22 22 22 21 21 21 20 20 19 19 18 18 17 17 17 17 17 16 16 16 16 16 16 16 16 16 16 16 16 17 17 17 16 16
21 20 19 17 17 17 18 17 17 17 19 20 19 20 21 22 22 21 21 21 20 20 19 19 19 18 18 17 17 16 16 16 16 16 16 16 16 16 16 16 15 15 16 16 16 17 17 16 16
20 19 17 17 16 16 18 18 17 19 19 19 19 21 22 22 22 22 22 21 21 20 20 19 19 18 18 17 17 16 16 15 15 15 15 15 15 15 15 15 15 15 15 15 16 16 16 16 16
19 18 17 17 17 17 18 17 18 20 20 20 21 23 23 22 22 22 22 22 21 20 20 19 18 18 17 17 16 16 15 15 15 15 15 15 15 15 15 15 15 15 15 15 15 15 16 16 16
19 17 19 17 17 17 17 18 19 21 21 20 21 22 22 23 23 23 22 22 21 21 20 19 18 18 17 17 16 16 15 15 15 15 15 15 15 15 15 15 15 15 14 15 15 15 15 15 15
19 17 16 16 16 16 17 18 18 20 21 21 20 21 23 23 23 23 23 22 22 21 20 19 18 18 17 17 16 16 15 15 15 15 15 15 15 15 15 15 15 15 14 14 15 15 15 15 15
19 18 16 15 16 16 16 17 18 19 19 19 19 22 23 23 23 23 23 22 22 21 20 19 18 18 17 17 16 16 15 15 15 15 15 15 15 15 15 15 15 14 14 14 14 14 15 15 15
17 17 16 16 16 15 15 16 19 18 18 18 20 21 22 23 23 23 23 22 22 21 20 20 19 18 17 17 16 16 15 15 15 15 15 15 15 15 15 15 15 15 14 14 14 14 15 15 15
Wind_Speed
4 2 2 3 6 6 2 2 2 1 1 3 3 6 8 5 2 1 1 7 8 9 9 11 11 10 9 9 9 9 11 12 12 12 12 11 11 11 12 12 12 13 12 11 10 10 10 10 10
2 1 3 5 6 3 4 4 1 2 4 5 5 5 5 3 3 5 4 6 9 9 9 10 11 10 10 9 9 10 11 12 12 12 12 12 11 12 12 12 12 12 11 11 10 10 10 10 12
1 2 3 5 4 4 3 3 3 2 4 3 4 5 3 3 4 5 5 10 9 7 8 10 11 10 10 10 10 11 11 12 12 13 12 12 12 12 12 12 11 11 10 10 10 10 10 11 12
3 5 5 6 2 3 4 3 4 7 2 4 4 4 2 1 6 6 9 11 9 7 8 10 11 11 10 10 10 11 11 12 13 13 12 12 11 11 11 11 11 10 10 10 10 9 9 9 10
4 4 5 3 2 4 4 4 5 7 5 4 4 4 1 2 6 10 11 10 9 7 7 9 11 11 11 11 11 11 11 12 12 13 12 11 11 10 10 10 10 9 9 10 10 9 8 7 10
4 4 5 2 3 6 5 3 2 4 5 5 6 5 1 3 8 10 9 8 8 8 7 9 12 12 11 12 12 12 12 11 12 12 12 11 10 10 10 9 9 8 9 10 10 9 7 8 13
4 4 5 4 1 4 3 1 3 5 5 6 7 6 1 3 7 9 8 7 7 7 6 6 9 11 12 12 12 13 12 12 11 11 11 10 10 10 9 9 8 8 9 10 11 10 10 11 13
4 5 4 3 2 3 4 2 2 6 4 5 6 7 6 7 8 8 7 6 6 6 6 5 7 8 9 10 12 13 13 12 11 11 10 10 10 9 9 8 8 9 10 11 11 11 12 13 12
4 4 3 5 6 4 3 1 2 3 7 4 4 6 6 11 11 8 5 4 5 6 5 6 6 7 8 9 11 12 12 12 11 10 10 9 7 7 7 7 7 9 11 12 12 13 13 13 12
4 3 6 5 6 4 2 1 1 4 4 3 2 2 6 13 12 10 8 8 8 7 6 5 6 6 7 8 8 8 9 9 9 7 8 8 7 5 5 5 7 9 10 11 13 13 13 12 11
3 5 4 3 3 3 2 1 2 6 3 6 8 8 11 11 12 12 11 9 9 7 7 7 6 6 5 4 5 6 6 7 8 8 8 8 6 4 3 3 5 7 9 10 11 12 11 10 9
2 4 3 3 1 2 3 2 2 5 8 9 10 12 14 15 16 17 16 12 8 7 8 8 8 7 6 4 4 5 4 5 5 7 9 8 4 3 2 2 4 6 7 7 8 8 9 10 9
2 3 3 5 5 4 3 3 2 5 7 4 8 11 16 18 16 15 12 9 9 10 11 11 10 9 8 6 4 4 4 5 7 8 8 9 4 3 2 2 3 4 6 5 5 6 7 7 7
3 3 4 5 4 3 5 3 2 8 3 5 10 13 15 17 16 12 11 12 12 12 13 11 12 11 10 8 7 6 5 6 7 7 9 9 7 4 3 2 2 3 4 5 5 6 6 5 6
2 3 5 3 3 3 3 3 7 6 2 6 9 11 13 14 12 14 15 13 11 10 12 12 12 12 11 9 9 6 7 8 6 7 10 10 9 6 4 3 3 3 5 6 7 7 8 5 5
3 3 2 5 2 1 6 7 11 3 2 6 8 9 10 12 12 12 11 10 9 10 12 14 13 12 11 10 8 5 6 7 6 8 9 11 11 9 6 4 4 5 6 5 5 5 5 6 5
4 1 2 5 3 1 3 7 9 3 3 7 7 8 9 9 9 9 9 10 10 13 14 15 13 13 12 10 7 6 5 5 6 7 7 9 11 11 8 5 4 7 5 4 5 4 4 5 6
2 2 3 4 5 3 3 8 11 7 5 7 7 7 8 8 6 3 4 6 8 11 13 15 13 11 10 7 6 4 4 4 4 5 7 9 10 12 10 5 6 7 5 5 5 5 4 5 6
1 3 5 6 6 4 8 10 12 8 5 7 7 7 7 5 1 2 2 1 2 5 9 11 11 9 9 6 6 5 5 4 4 4 7 9 10 11 9 5 6 6 7 7 8 5 6 4 4
2 2 5 8 6 4 7 10 9 6 6 7 8 9 8 5 2 1 2 2 1 3 6 8 9 8 8 7 5 3 3 3 3 4 5 8 10 10 9 7 7 8 6 8 7 6 5 3 4
3 3 5 7 8 5 5 8 7 6 3 4 4 6 7 8 7 4 2 1 1 3 5 6 7 7 7 6 4 3 3 2 2 3 4 5 10 11 9 7 6 7 8 10 10 9 8 6 4
4 7 8 9 6 6 3 6 8 7 6 4 3 6 8 7 6 5 4 4 4 4 3 4 6 6 6 7 7 7 6 5 5 4 4 5 8 10 10 9 7 7 6 8 11 9 6 8 6
6 5 6 7 6 5 3 4 9 5 6 7 6 7 7 7 7 7 7 6 4 3 4 4 5 6 6 7 8 7 5 4 3 3 6 5 6 7 9 9 7 6 6 7 8 8 6 6 6
5 1 3 3 2 4 6 6 7 5 7 5 6 8 8 7 7 7 6 4 4 3 4 4 5 5 6 7 7 8 7 6 6 5 6 5 5 6 7 7 7 6 5 6 8 8 8 6 6
4 3 3 4 2 6 4 4 9 8 8 7 9 10 9 8 8 8 8 8 7 7 6 5 6 6 6 7 7 7 8 8 8 7 7 7 6 5 8 8 7 6 6 6 6 7 7 7 7
7 10 8 6 5 5 3 6 8 8 6 5 7 7 7 8 9 10 10 9 9 8 7 7 7 6 6 6 6 6 7 6 5 7 6 8 7 7 9 8 7 6 6 6 6 5 6 6 7
5 7 8 6 3 2 6 6 8 3 2 2 4 5 8 9 10 10 8 9 9 9 9 9 8 7 7 7 6 6 7 7 6 6 6 5 5 7 9 9 7 6 5 5 6 4 5 5 6
5 6 6 6 6 5 5 5 5 6 5 4 5 7 9 9 8 8 7 8 9 10 9 8 8 8 7 7 7 6 7 7 7 6 7 6 7 7 8 8 7 6 5 4 4 3 3 5 5
2 3 4 3 4 5 3 7 6 7 6 7 9 9 9 9 9 8 7 7 8 8 8 9 8 8 7 7 7 6 7 7 7 7 7 7 7 7 8 8 7 7 5 5 4 4 4 5 6
1 3 4 2 2 1 3 8 7 5 7 7 9 8 8 8 8 7 8 7 8 9 9 9 9 8 8 7 7 7 7 7 7 7 7 7 7 6 6 7 7 7 6 6 6 6 6 7 7
Wind_Direction
337 2 90 59 52 49 10 300 248 277 57 37 63 86 100 105 147 217 88 135 134 142 159 168 169 166 162 159 156 153 149 143 140 138 135 132 130 127 124 123 120 115 110 105 99 93 83 75 79
3 340 54 58 79 64 299 284 264 249 146 128 86 83 83 82 88 116 128 144 140 147 156 162 166 163 159 157 156 155 152 147 144 141 137 135 134 130 127 125 120 114 107 101 98 94 83 81 89
312 28 74 68 94 160 254 254 206 115 136 97 74 59 83 130 138 151 160 144 139 144 150 161 162 159 158 158 157 155 151 147 144 140 137 136 133 130 129 126 121 115 104 95 93 91 85 86 90
57 42 52 70 77 230 241 262 164 129 142 74 95 74 54 96 153 152 138 141 139 142 149 161 158 157 158 158 157 154 151 147 142 139 138 137 133 131 131 129 123 115 105 96 91 91 87 87 93
58 73 63 56 321 301 289 275 163 149 152 111 113 116 56 28 120 132 139 143 144 145 151 160 158 156 159 159 156 154 152 148 142 139 139 139 135 133 135 133 124 115 107 100 97 97 90 92 110
52 70 92 129 312 318 309 294 156 131 128 125 128 132 140 117 132 144 145 144 149 150 151 160 161 160 161 160 157 155 155 152 146 143 142 142 140 138 136 131 120 110 106 104 102 98 87 102 121
108 103 132 152 312 321 308 306 152 147 151 168 147 129 169 170 161 148 141 138 145 147 145 152 160 163 164 164 162 160 158 156 151 147 145 143 142 139 136 131 120 107 105 106 100 91 87 106 116
127 105 109 151 156 277 292 306 185 157 167 137 130 148 197 196 159 133 123 131 141 146 148 147 151 153 157 164 166 163 163 161 157 154 150 147 146 145 141 132 123 113 108 102 92 88 91 98 101
103 79 161 195 185 235 277 349 22 128 118 131 167 185 201 152 141 131 128 143 159 167 161 155 150 147 149 157 170 166 167 167 163 160 158 146 135 135 133 134 129 117 108 96 86 87 94 96 93
96 139 217 213 195 208 235 190 94 96 107 126 124 124 132 144 156 165 177 182 186 186 181 169 160 151 151 163 158 155 158 164 154 149 140 130 132 135 133 147 137 120 104 91 83 86 90 89 80
142 197 242 256 213 222 224 169 111 127 176 199 195 176 149 159 173 188 198 194 192 187 187 178 169 156 154 146 143 146 145 146 146 145 136 135 131 123 116 104 91 90 87 79 79 78 83 84 77
220 251 251 275 245 236 218 167 133 178 218 217 196 166 163 176 189 199 203 200 181 174 191 185 178 167 165 155 150 152 151 151 153 154 149 142 134 123 115 105 93 89 91 85 79 82 91 93 83
242 279 272 262 263 254 213 203 210 241 243 223 156 159 178 189 200 208 207 196 181 184 191 191 184 179 172 165 165 163 169 166 165 161 161 159 151 151 136 116 105 103 102 97 90 91 103 103 92
265 284 293 283 264 228 199 230 211 255 230 159 163 181 194 199 204 205 206 204 195 192 192 191 190 188 182 179 179 176 175 172 169 173 172 171 170 165 153 145 131 123 116 107 102 110 114 109 104
320 343 332 306 280 254 160 259 240 250 146 186 197 202 205 212 209 211 214 212 200 190 189 192 195 191 187 186 187 181 180 176 178 183 181 179 180 183 175 169 174 164 141 118 107 107 109 110 106
26 27 329 301 314 279 150 244 265 285 183 219 218 220 219 223 223 224 221 216 199 184 188 195 200 192 191 189 184 178 178 180 185 185 182 186 188 188 183 185 192 175 155 136 127 123 111 116 120
30 30 296 313 348 44 164 249 277 323 227 235 224 222 225 227 229 230 222 216 203 192 190 194 200 191 190 186 178 178 172 180 182 181 181 188 190 191 189 195 195 177 161 150 150 132 126 130 127
359 335 319 306 320 335 261 262 280 299 246 237 224 213 217 215 222 243 241 227 212 199 194 194 195 189 181 174 165 169 176 180 172 177 183 186 188 191 192 194 192 177 168 162 150 136 117 130 133
20 315 296 280 281 274 257 263 274 287 258 237 221 207 205 206 283 9 356 334 181 186 189 192 187 181 170 171 175 178 192 186 180 181 178 181 185 188 191 195 182 180 184 171 150 132 127 125 127
140 300 299 295 289 265 267 269 271 274 249 235 220 201 186 181 173 42 31 36 157 187 188 185 183 175 176 182 172 161 161 176 178 173 169 180 184 189 196 188 189 187 174 159 160 145 138 146 158
193 220 254 272 298 308 295 295 291 290 287 277 218 180 180 181 181 185 183 193 189 198 192 187 177 170 168 158 137 119 114 108 150 171 173 183 185 188 190 183 184 190 180 180 177 166 153 158 180
225 229 239 256 266 276 299 287 282 282 298 272 195 170 182 187 181 192 205 212 216 216 196 179 168 163 159 156 165 170 178 189 196 175 168 172 182 185 187 181 183 192 194 192 187 175 162 157 165
224 238 233 250 243 263 273 247 284 300 273 252 211 200 199 196 193 205 213 217 220 204 184 176 166 165 161 165 171 174 175 173 155 153 159 164 170 175 178 177 179 188 196 199 190 176 169 165 166
220 68 66 54 93 261 240 205 279 253 238 244 206 210 208 202 204 214 217 209 211 195 180 171 174 179 170 170 172 175 170 163 161 166 165 162 162 164 170 170 174 188 193 195 194 184 177 179 173
177 127 357 334 355 252 249 204 252 260 251 225 200 207 208 202 200 205 205 204 205 201 197 187 187 193 183 180 182 181 177 175 179 176 176 168 168 169 171 167 172 181 191 194 189 183 187 185 185
206 172 179 211 227 275 281 232 259 277 283 218 192 194 197 206 209 210 207 201 201 202 199 195 198 201 190 191 191 185 180 179 186 184 180 181 180 171 165 163 164 168 175 192 187 185 189 189 200
181 203 187 155 173 252 282 287 302 307 25 127 162 187 211 219 222 221 209 198 199 201 203 201 200 202 197 195 188 187 185 185 187 184 180 178 166 162 160 159 154 156 165 181 176 178 185 188 206
161 148 108 140 170 235 276 280 255 255 236 223 219 226 234 236 240 239 218 202 201 203 201 199 201 204 200 191 188 190 190 189 182 175 178 173 169 166 162 158 154 153 157 168 174 170 185 198 212
93 96 95 114 142 165 250 271 237 244 244 234 236 236 238 241 243 241 228 209 197 190 190 196 201 200 197 193 189 188 190 187 182 184 186 178 176 173 171 166 161 155 158 164 174 203 209 219 227
86 118 121 135 269 184 215 267 274 267 266 254 258 259 253 250 249 239 223 203 190 188 191 197 197 197 199 190 186 190 188 183 187 193 192 184 183 182 176 165 160 159 165 176 185 203 215 221 232
Height
1492 1491 1491 1492 1496 1509 1509 1503 1498 1496 1495 1495 1495 1496 1498 1501 1504 1508 1504 1502 1504 1505 1507 1509 1510 1512 1513 1515 1517 1518 1520 1521 1522 1523 1524 1525 1526 1527 1528 1529 1530 1531 1531 1531 1532 1532 1532 1532 1532
1492 1492 1493 1493 1506 1520 1514 1501 1498 1496 1495 1495 1496 1497 1498 1500 1501 1502 1502 1503 1504 1506 1507 1509 1511 1512 1514 1515 1517 1518 1520 1521 1522 1523 1524 1525 1526 1527 1528 1529 1531 1532 1532 1532 1532 1533 1533 1534 1534
1492 1492 1494 1497 1509 1516 1508 1498 1495 1494 1495 1496 1497 1498 1500 1501 1501 1501 1502 1503 1505 1506 1507 1509 1511 1512 1514 1515 1517 1519 1520 1521 1522 1524 1525 1526 1527 1528 1529 1530 1531 1532 1533 1533 1533 1534 1534 1535 1535
1493 1494 1495 1503 1507 1504 1500 1495 1494 1495 1496 1497 1498 1500 1500 1502 1501 1502 1502 1503 1505 1506 1508 1509 1511 1513 1514 1516 1517 1519 1520 1522 1523 1524 1526 1527 1528 1529 1530 1531 1532 1533 1533 1534 1534 1535 1536 1536 1537
1493 1494 1501 1509 1505 1499 1495 1493 1493 1494 1495 1497 1498 1500 1501 1502 1501 1502 1503 1504 1505 1507 1508 1510 1511 1513 1514 1516 1518 1519 1521 1522 1524 1525 1526 1527 1528 1530 1531 1532 1533 1533 1534 1534 1535 1536 1537 1538 1539
1494 1496 1510 1514 1505 1499 1494 1493 1493 1493 1495 1496 1497 1499 1500 1502 1502 1502 1503 1504 1506 1507 1508 1510 1511 1513 1515 1516 1518 1519 1521 1523 1525 1526 1527 1528 1530 1531 1532 1533 1534 1534 1534 1535 1536 1537 1539 1540 1540
1495 1500 1507 1507 1506 1500 1494 1493 1493 1493 1494 1495 1496 1498 1500 1501 1502 1503 1504 1504 1506 1507 1508 1510 1511 1513 1515 1516 1518 1520 1521 1523 1525 1527 1528 1529 1531 1532 1533 1534 1535 1535 1536 1536 1537 1539 1540 1541 1541
1494 1499 1505 1506 1505 1500 1493 1492 1492 1492 1494 1495 1497 1497 1498 1500 1501 1503 1504 1505 1505 1506 1508 1509 1511 1513 1515 1516 1518 1520 1522 1524 1526 1527 1529 1530 1531 1533 1534 1535 1536 1537 1537 1538 1539 1540 1542 1542 1543
1494 1503 1507 1503 1502 1497 1492 1492 1492 1492 1493 1495 1496 1497 1497 1499 1500 1502 1503 1504 1505 1506 1507 1509 1511 1512 1514 1516 1518 1520 1522 1524 1526 1528 1529 1531 1532 1533 1535 1536 1537 1538 1539 1540 1541 1542 1543 1544 1544
1493 1503 1499 1494 1493 1492 1491 1491 1491 1492 1494 1495 1495 1496 1497 1498 1499 1500 1501 1502 1504 1505 1507 1509 1511 1512 1514 1516 1517 1519 1521 1524 1526 1528 1529 1531 1532 1534 1536 1537 1539 1540 1541 1542 1543 1544 1544 1545 1545
1492 1496 1492 1490 1490 1491 1491 1490 1490 1491 1494 1493 1493 1494 1495 1497 1498 1499 1500 1501 1503 1505 1507 1509 1511 1512 1514 1515 1517 1519 1521 1523 1525 1527 1529 1531 1532 1534 1536 1538 1539 1541 1542 1544 1545 1545 1546 1546 1546
1493 1491 1490 1489 1490 1490 1490 1489 1490 1490 1490 1490 1491 1492 1493 1495 1496 1496 1497 1499 1502 1504 1507 1509 1510 1512 1513 1515 1516 1518 1520 1522 1525 1527 1529 1530 1532 1534 1536 1538 1540 1542 1544 1545 1546 1547 1547 1547 1547
1492 1491 1490 1489 1489 1489 1489 1488 1489 1488 1488 1488 1489 1491 1492 1492 1493 1495 1497 1499 1501 1503 1505 1507 1509 1510 1512 1514 1515 1517 1520 1522 1524 1526 1528 1530 1532 1534 1537 1539 1541 1543 1545 1546 1547 1548 1548 1549 1549
1491 1490 1489 1488 1487 1487 1488 1487 1488 1486 1486 1487 1487 1488 1489 1490 1492 1494 1495 1496 1498 1500 1503 1505 1507 1508 1510 1511 1513 1515 1518 1520 1523 1525 1528 1530 1532 1535 1537 1539 1542 1544 1545 1546 1548 1548 1549 1550 1550
1491 1490 1489 1487 1486 1485 1487 1489 1486 1484 1485 1485 1486 1486 1487 1488 1490 1491 1492 1494 1496 1499 1501 1503 1505 1507 1508 1510 1512 1514 1516 1519 1521 1524 1527 1529 1532 1535 1537 1539 1542 1544 1545 1547 1548 1549 1550 1551 1552
1492 1495 1498 1489 1486 1485 1490 1496 1483 1483 1483 1483 1484 1484 1485 1486 1487 1488 1490 1493 1495 1497 1499 1501 1503 1504 1506 1508 1510 1512 1514 1517 1519 1522 1525 1528 1531 1534 1536 1539 1541 1543 1545 1546 1548 1549 1550 1551 1553
1500 1505 1501 1493 1486 1486 1489 1492 1482 1481 1481 1481 1481 1482 1482 1483 1484 1485 1487 1489 1491 1493 1495 1498 1500 1502 1504 1506 1508 1511 1513 1515 1518 1521 1524 1527 1530 1533 1535 1538 1540 1542 1544 1545 1547 1549 1550 1552 1553
1509 1507 1503 1499 1489 1488 1491 1489 1481 1479 1479 1478 1478 1478 1479 1479 1481 1483 1484 1486 1487 1489 1490 1493 1496 1498 1501 1504 1506 1508 1511 1513 1516 1519 1522 1525 1528 1531 1533 1536 1538 1540 1542 1544 1546 1548 1550 1552 1553
1503 1505 1505 1499 1490 1491 1492 1489 1482 1477 1476 1475 1475 1475 1476 1478 1480 1481 1483 1484 1484 1485 1486 1487 1491 1494 1497 1500 1503 1505 1507 1510 1513 1516 1519 1522 1525 1527 1530 1532 1535 1537 1539 1542 1544 1546 1549 1550 1552
1502 1506 1505 1498 1490 1491 1491 1488 1479 1475 1473 1472 1471 1472 1474 1477 1479 1481 1481 1482 1482 1482 1483 1484 1487 1490 1494 1497 1500 1503 1505 1508 1510 1512 1515 1517 1520 1523 1526 1529 1532 1535 1537 1539 1541 1544 1546 1549 1551
1500 1503 1502 1501 1493 1490 1492 1490 1481 1473 1471 1469 1469 1470 1473 1476 1478 1480 1480 1481 1481 1481 1481 1483 1485 1488 1491 1494 1496 1499 1502 1504 1507 1509 1510 1513 1516 1519 1521 1524 1528 1531 1534 1536 1538 1541 1543 1545 1548
1499 1493 1494 1496 1501 1503 1497 1508 1488 1477 1472 1469 1469 1470 1473 1476 1478 1479 1480 1480 1480 1480 1481 1482 1484 1486 1488 1490 1492 1495 1497 1499 1502 1504 1506 1509 1512 1514 1517 1520 1523 1527 1530 1533 1535 1538 1541 1543 1546
1491 1486 1490 1493 1498 1503 1499 1506 1494 1479 1474 1468 1468 1470 1472 1475 1477 1478 1479 1480 1480 1480 1480 1481 1482 1484 1485 1487 1489 1491 1493 1496 1498 1501 1503 1505 1508 1510 1513 1516 1519 1522 1526 1529 1532 1535 1537 1540 1543
1484 1488 1493 1499 1504 1513 1499 1505 1499 1481 1472 1466 1466 1468 1470 1473 1475 1477 1478 1479 1479 1480 1480 1481 1481 1482 1483 1485 1486 1488 1490 1492 1495 1497 1499 1502 1504 1506 1509 1511 1514 1517 1521 1525 1528 1531 1534 1537 1540
1485 1497 1512 1513 1519 1515 1496 1499 1493 1469 1465 1463 1463 1466 1468 1471 1473 1475 1476 1477 1478 1479 1480 1480 1481 1481 1482 1483 1484 1485 1487 1489 1492 1494 1497 1498 1501 1503 1505 1507 1510 1513 1516 1520 1524 1527 1531 1534 1537
1484 1491 1510 1518 1519 1511 1495 1498 1481 1464 1460 1459 1461 1464 1467 1469 1471 1472 1474 1475 1476 1477 1478 1479 1480 1480 1481 1482 1483 1484 1485 1487 1489 1492 1494 1496 1498 1500 1502 1504 1506 1509 1512 1516 1520 1524 1527 1530 1533
1482 1487 1483 1500 1505 1509 1501 1489 1474 1462 1460 1460 1461 1463 1465 1466 1468 1470 1471 1473 1474 1475 1476 1477 1478 1479 1480 1481 1481 1482 1484 1485 1488 1490 1492 1494 1496 1497 1499 1501 1504 1507 1510 1513 1516 1520 1523 1526 1529
1474 1479 1492 1500 1510 1514 1503 1494 1485 1467 1462 1461 1461 1462 1462 1464 1466 1467 1469 1470 1472 1473 1474 1475 1476 1477 1478 1479 1480 1481 1482 1484 1486 1488 1490 1492 1494 1495 1497 1499 1501 1504 1506 1509 1512 1516 1519 1522 1525
1478 1481 1487 1495 1499 1510 1511 1497 1470 1465 1461 1461 1459 1459 1460 1461 1463 1464 1466 1468 1469 1470 1471 1472 1473 1474 1475 1476 1478 1479 1481 1482 1484 1486 1488 1490 1492 1494 1496 1497 1499 1501 1504 1507 1510 1513 1516 1519 1521
1477 1481 1488 1498 1500 1503 1507 1496 1462 1461 1459 1459 1458 1457 1458 1459 1460 1461 1462 1464 1466 1467 1468 1469 1470 1471 1473 1474 1476 1477 1479 1480 1482 1484 1486 1488 1491 1492 1494 1496 1497 1499 1501 1504 1507 1510 1512 1515 1517